EW0139 Weather Reports


time (UTC)temp
F
wind
direction
speed
knots
gust
knots
rain 1hr
in
rain 24hr
in
rain mn
in
humidity
%
barometer
mb
20260902060743 70 100 5.2 13.0 0.00 0.00 0.00 44 1008.7
20260902055248 70 107 6.1 11.3 0.00 0.00 0.00 43 1008.8
20260902053749 71 88 5.2 13.0 0.00 0.00 0.00 43 1008.8
20260902052314 71 58 12.2 13.0 0.00 0.00 0.00 42 1008.8
20260902050753 71 67 8.7 16.5 0.00 0.00 0.00 41 1008.8
20260902045253 71 42 7.0 14.8 0.00 0.00 0.00 39 1008.7
20260902043741 72 53 4.3 14.8 0.00 0.00 0.00 38 1008.7
20260902042241 72 90 7.8 16.5 0.00 0.00 0.00 38 1009.0
20260902040745 72 48 10.4 15.6 0.00 0.00 0.00 38 1008.9
20260902035251 72 44 8.7 12.2 0.00 0.00 0.00 38 1009.0
20260902033751 72 73 8.7 14.8 0.00 0.00 0.00 39 1009.3
20260902032252 72 48 7.0 13.9 0.00 0.00 0.00 38 1009.3
20260902030801 73 77 1.7 10.4 0.00 0.00 0.00 38 1009.4
20260902025241 73 107 5.2 10.4 0.00 0.00 0.00 37 1009.4
20260902023750 74 21 6.1 11.3 0.00 0.00 0.00 37 1009.2
20260902022251 74 38 9.6 11.3 0.00 0.00 0.00 35 1009.2
20260902020752 75 29 2.6 8.7 0.00 0.00 0.00 34 1009.2
20260902015241 77 80 5.2 8.7 0.00 0.00 0.00 33 1009.0
20260902013742 78 57 2.6 9.6 0.00 0.00 0.00 32 1008.9
20260902012249 79 57 7.8 10.4 0.00 0.00 0.00 31 1009.0
20260902010749 80 76 5.2 11.3 0.00 0.00 0.00 30 1009.1
20260902005253 81 63 2.6 13.9 0.00 0.00 0.00 29 1009.2
20260902003738 82 75 11.3 16.5 0.00 0.00 0.00 28 1009.2
20260902002306 83 46 9.6 15.6 0.00 0.00 0.00 28 1009.3
20260902000743 84 53 11.3 14.8 0.00 0.00 0.00 28 1009.2
20260901235248 84 75 12.2 19.1 0.00 0.00 0.00 27 1009.4
20260901233749 83 80 9.6 13.0 0.00 0.00 0.00 27 1009.5
20260901232255 84 97 8.7 17.4 0.00 0.00 0.00 26 1009.5
20260901230756 85 96 9.6 19.1 0.00 0.00 0.00 26 1009.6
20260901225318 86 102 16.5 19.1 0.00 0.00 0.00 25 1009.8
20260901223741 87 83 6.1 13.9 0.00 0.00 0.00 25 1009.8
20260901222242 87 75 12.2 14.8 0.00 0.00 0.00 25 1009.9
20260901220745 87 69 6.1 17.4 0.00 0.00 0.00 25 1010.1
20260901215248 86 94 10.4 15.6 0.00 0.00 0.00 26 1010.3
20260901213749 86 76 12.2 18.2 0.00 0.00 0.00 26 1010.6
20260901212316 85 65 10.4 15.6 0.00 0.00 0.00 28 1010.7
20260901210757 86 70 10.4 14.8 0.00 0.00 0.00 27 1010.8
20260901205238 85 49 12.2 16.5 0.00 0.00 0.00 28 1011.0
20260901203749 84 84 10.4 14.8 0.00 0.00 0.00 28 1011.3
20260901202249 84 84 10.4 12.2 0.00 0.00 0.00 28 1011.3
20260901200756 83 102 9.6 13.9 0.00 0.00 0.00 29 1011.8
20260901195300 82 91 13.9 14.8 0.00 0.00 0.00 30 1012.0
20260901193802 81 88 7.8 15.6 0.00 0.00 0.00 31 1012.3
20260901192247 82 103 13.0 15.6 0.00 0.00 0.00 31 1012.5
20260901190749 81 53 3.5 13.9 0.00 0.00 0.00 31 1012.7
20260901185250 81 94 7.0 16.5 0.00 0.00 0.00 31 1012.9
20260901183755 81 107 9.6 16.5 0.00 0.00 0.00 29 1013.2
20260901182255 80 117 13.0 18.2 0.00 0.00 0.00 31 1013.2
20260901180740 80 102 13.0 15.6 0.00 0.00 0.00 32 1013.5
20260901175240 79 79 13.0 14.8 0.00 0.00 0.00 33 1013.4
20260901173803 78 115 7.8 14.8 0.00 0.00 0.00 33 1013.5
20260901172246 77 111 9.6 14.8 0.00 0.00 0.00 34 1013.8
20260901170749 77 107 10.4 13.9 0.00 0.00 0.00 35 1013.1
20260901165251 75 92 8.7 14.8 0.00 0.00 0.00 36 1013.3
20260901163756 74 109 7.0 12.2 0.00 0.00 0.00 37 1013.5
20260901162256 72 81 8.7 10.4 0.00 0.00 0.00 39 1013.5
20260901160802 71 121 8.7 11.3 0.00 0.00 0.00 40 1013.5
20260901155242 68 84 7.0 9.6 0.00 0.00 0.00 43 1013.7
20260901153743 65 136 2.6 9.6 0.00 0.00 0.00 48 1013.7
20260901152248 67 115 6.1 7.8 0.00 0.00 0.00 44 1013.7
20260901150809 65 79 3.5 5.2 0.00 0.00 0.00 47 1013.6
20260901145249 63 36 0.0 4.3 0.00 0.00 0.00 49 1013.6
20260901143755 62 36 2.6 5.2 0.00 0.00 0.00 52 1013.6
20260901142240 59 14 0.9 4.3 0.00 0.00 0.00 56 1013.8
20260901140808 57 10 0.0 5.2 0.00 0.00 0.00 57 1014.0
20260901135247 55 331 0.0 4.3 0.00 0.00 0.00 61 1014.0
20260901133748 52 275 2.6 2.6 0.00 0.00 0.00 65 1014.2
20260901132313 48 263 0.9 1.7 0.00 0.00 0.00 72 1014.3
20260901130752 45 259 0.0 0.9 0.00 0.00 0.00 75 1014.2
20260901125254 44 258 0.0 0.0 0.00 0.00 0.00 73 1014.4
20260901123739 45 258 0.0 0.0 0.00 0.00 0.00 73 1014.3
20260901122244 45 258 0.0 2.6 0.00 0.00 0.00 72 1014.0
20260901120753 45 240 0.0 0.9 0.00 0.00 0.00 73 1013.9
20260901115314 45 239 0.0 0.0 0.00 0.00 0.00 72 1014.0
20260901113756 46 240 0.0 0.0 0.00 0.00 0.00 72 1014.1
20260901112241 46 240 0.0 3.5 0.00 0.00 0.00 70 1013.9
20260901110802 48 285 0.0 0.0 0.00 0.00 0.00 67 1013.7
20260901105242 48 285 0.0 0.0 0.00 0.00 0.00 67 1013.6
20260901103750 47 285 0.0 1.7 0.00 0.00 0.00 68 1014.5
20260901102251 48 285 0.0 0.0 0.00 0.00 0.00 68 1014.5
20260901100756 48 285 0.0 0.0 0.00 0.00 0.00 67 1014.6
20260901095256 48 285 0.0 0.9 0.00 0.00 0.00 67 1014.6
20260901093757 48 285 0.0 0.9 0.00 0.00 0.00 66 1014.7
20260901092301 48 285 0.0 0.9 0.00 0.00 0.00 65 1014.6
20260901090744 47 285 0.0 0.9 0.00 0.00 0.00 67 1014.5
20260901085249 48 285 0.0 1.7 0.00 0.00 0.00 64 1014.6
20260901083812 49 285 0.0 2.6 0.00 0.00 0.00 64 1014.7
20260901082250 48 285 0.0 2.6 0.00 0.00 0.00 65 1014.7
20260901080813 47 285 0.0 0.0 0.00 0.00 0.00 66 1015.0
20260901075257 46 285 0.0 0.0 0.00 0.00 0.00 67 1014.9
20260901073757 47 285 0.0 0.0 0.00 0.00 0.00 68 1014.7
20260901072244 47 285 0.9 0.9 0.00 0.00 0.00 67 1014.8
20260901070744 48 285 0.0 1.7 0.00 0.00 0.00 66 1014.5
20260901065244 48 285 0.0 0.0 0.00 0.00 0.00 66 1014.8
20260901063751 49 285 0.0 0.0 0.00 0.00 0.00 62 1014.5
20260901062253 49 285 0.0 0.0 0.00 0.00 0.00 62 1014.4